[[[{"header":{"parameterUnit":"kt","parameterCategory":2,"dx":1,"dy":1,"la1":30.253999710083008,"la2":30.299108505249023,"lo1":-89.0895004272461,"lo2":-89.04439544677734,"nx":28,"ny":28,"refTime":"2022-09-22T21:00:00:Z","depth":"0","parameterNumber":2,"parameterNumberName":"U-component_of_CURRENTS"},"data":[0.168,0.1761,0.1844,0.1993,0.2104,0.2259,0.2385,0.2628,0.2958,0.3581,0.4135,0.458,0.5623,0.6966,0.767,0.7602,0.7224,0.7108,0.6826,0.7094,0.701,0.6929,0.6953,0.7727,0.7727,0.6654,0.6649,0.6645,0.1711,0.1798,0.1913,0.2061,0.2168,0.2273,0.2502,0.2637,0.291,0.3365,0.3708,0.462,0.5333,0.5915,0.6722,0.6868,0.647,0.6846,0.6419,0.6275,0.6353,0.6376,0.704,0.704,0.7039,0.7039,0.7039,0.7039,0.1776,0.1829,0.1958,0.2076,0.2198,0.2355,0.246,0.2688,0.2925,0.3299,0.3563,0.402,0.4782,0.537,0.5501,0.6011,0.5515,0.6014,0.5958,0.5541,0.5455,0.5417,0.5905,0.5902,0.5899,0.5897,0.5895,0,0.1824,0.1888,0.1986,0.2115,0.2229,0.2362,0.2535,0.2643,0.2918,0.3127,0.3484,0.3742,0.4293,0.4727,0.507,0.5163,0.5004,0.5133,0.5274,0.5456,0.5094,0.4971,0.4731,0.5226,0.5219,0.5213,0.5209,0.5206,0.1855,0.1916,0.2093,0.2157,0.2239,0.2374,0.2481,0.2676,0.2813,0.3172,0.3286,0.3647,0.391,0.4321,0.4515,0.4734,0.4525,0.4961,0.4763,0.4936,0.4881,0.4479,0.4376,0.5128,0.5138,0.5146,0.5153,0,0.1867,0.1972,0.2091,0.2268,0.2319,0.2403,0.2593,0.2712,0.2882,0.3086,0.3157,0.3414,0.3701,0.3824,0.3994,0.4004,0.421,0.4208,0.4424,0.4451,0.4741,0.4692,0.4807,0.4738,0.4501,0.4507,0.4513,0,0.1912,0.1994,0.2146,0.2205,0.233,0.2447,0.259,0.2694,0.2872,0.3018,0.312,0.3277,0.3358,0.3538,0.3539,0.3773,0.3745,0.375,0.3755,0.3907,0.3929,0.4061,0.4013,0.3595,0.3592,0.359,0.3588,0,0.1869,0.2042,0.2149,0.2201,0.2364,0.244,0.2524,0.2667,0.2758,0.2935,0.3023,0.3172,0.326,0.3332,0.3392,0.3273,0.3607,0.3424,0.3611,0.3621,0.3807,0.3826,0.4391,0.3585,0.3584,0.3583,0.3582,0,0.1893,0.1975,0.2118,0.2256,0.2293,0.2379,0.2518,0.2612,0.2755,0.28,0.2902,0.2913,0.3064,0.294,0.3136,0.3035,0.3059,0.3068,0.3078,0.316,0.3032,0.3504,0.3903,0.4072,0.3137,0.3133,0.3129,0,0.182,0.1959,0.2008,0.2147,0.2216,0.226,0.2364,0.2443,0.2497,0.2603,0.2629,0.2701,0.2624,0.265,0.273,0.2741,0.2861,0.2694,0.2802,0.2807,0.2936,0.3262,0.3492,0.3813,0.3074,0.308,0.3084,0,0.1736,0.1863,0.1878,0.1927,0.2016,0.2067,0.2181,0.2268,0.2339,0.2384,0.249,0.2525,0.251,0.2501,0.2461,0.2537,0.2769,0.2454,0.2452,0.2591,0.3005,0.3164,0.3216,0.2708,0.2714,0.2719,0.3041,0,0.1719,0.1766,0.1819,0.1874,0.1928,0.2005,0.204,0.2094,0.2092,0.2113,0.2203,0.218,0.2202,0.2207,0.2151,0.231,0.229,0.2191,0.2099,0.2274,0.2389,0.2424,0.1943,0.1938,0.1934,0.1931,0,0,0.1603,0.1649,0.1639,0.1709,0.1752,0.1736,0.1812,0.1849,0.188,0.1911,0.1862,0.1907,0.186,0.1953,0.201,0.1972,0.2016,0.1944,0.2169,0.2196,0.222,0.234,0.2378,0.1924,0.1923,0.1921,0.192,0,0.1574,0.1559,0.1602,0.1642,0.1688,0.1697,0.1717,0.1748,0.1762,0.1817,0.1754,0.1783,0.1762,0.1772,0.1761,0.1913,0.1861,0.1894,0.2051,0.2133,0.2165,0.2193,0.2318,0.2355,0.1911,0.1911,0.1912,0,0.1487,0.1489,0.1496,0.1527,0.1553,0.1616,0.1551,0.1615,0.1665,0.1548,0.1612,0.1579,0.1526,0.1589,0.1602,0.1547,0.1737,0.1622,0.1641,0.1651,0.1728,0.1765,0.1798,0.1379,0.1378,0.1377,0,0,0.1459,0.1474,0.148,0.1517,0.1538,0.154,0.1567,0.156,0.1565,0.1564,0.153,0.1497,0.1495,0.149,0.1474,0.1524,0.1531,0.1565,0.159,0.1611,0.1633,0.1715,0.175,0.1373,0.1373,0.1373,0,0,0.145,0.1441,0.1411,0.1446,0.1481,0.1501,0.1549,0.1524,0.153,0.1518,0.1435,0.1421,0.1461,0.1402,0.1361,0.1449,0.1337,0.1344,0.151,0.1539,0.1564,0.1596,0.1247,0,0,0,0,0,0.1404,0.1443,0.1415,0.1419,0.1441,0.1509,0.1517,0.1506,0.1464,0.1503,0.1466,0.1385,0.1377,0.1339,0.1328,0.1403,0.1322,0.1331,0.134,0.1563,0.1595,0.1622,0,0,0,0,0,0,0.1406,0.1409,0.1416,0.143,0.1437,0.1505,0.1436,0.1434,0.146,0.1453,0.1399,0.1383,0.1328,0.1337,0.1329,0.1403,0.125,0.1325,0.1333,0.134,0.1574,0.16,0.1623,0,0,0,0,0,0.1407,0.141,0.1435,0.1431,0.1436,0.1438,0.1433,0.1431,0.1447,0.1387,0.1374,0.1439,0.1332,0.1319,0.1332,0.141,0.1255,0.1252,0.133,0.1337,0.1342,0.1587,0,0,0,0,0,0,0.1409,0.1413,0.1437,0.1441,0.1405,0.1436,0.1435,0.1428,0.1377,0.1369,0.1421,0.1416,0.1334,0.1324,0.1315,0.1419,0.1259,0.1256,0.1254,0.1335,0.134,0.1344,0,0,0,0,0,0,0.1412,0.1415,0.1439,0.1407,0.1406,0.1433,0.1432,0.1413,0.1373,0.1411,0.1408,0.1419,0.1314,0.1328,0.132,0.1295,0.1262,0.1259,0.1257,0.1256,0.1339,0.1343,0,0,0,0,0,0,0.1414,0.1416,0.1405,0.1405,0.1404,0.1439,0.1412,0.1411,0.142,0.141,0.1413,0.141,0.1316,0.131,0.1325,0.1303,0.1297,0.1262,0.126,0.1259,0.1258,0,0,0,0,0,0,0,0.1416,0.1389,0.1421,0.1404,0.1403,0.1473,0.1474,0.1474,0.1419,0.1417,0.1414,0.1411,0.1276,0.1274,0.1271,0.131,0,0,0.1262,0.1261,0,0,0,0,0,0,0,0,0.1389,0.1389,0.1421,0.1422,0.1423,0.1473,0.1474,0.1474,0.1419,0.1417,0.1414,0.1412,0.1276,0.1273,0.1271,0,0,0,0,0,0,0,0,0,0,0,0,0,0,0,0.1421,0.1422,0,0.1473,0.1474,0.1474,0.1419,0.1417,0.1415,0.1413,0.1275,0.1273,0.1271,0,0,0,0,0,0,0,0,0,0,0,0,0,0,0,0,0,0,0,0,0,0,0,0,0,0,0,0,0,0,0,0,0,0,0,0,0,0,0,0,0,0,0,0,0,0,0,0,0,0,0,0,0,0,0,0,0,0,0,0,0,0,0,0,0,0,0,0,0]}],[{"header":{"parameterUnit":"kt","parameterCategory":2,"dx":1,"dy":1,"la1":30.253999710083008,"la2":30.299108505249023,"lo1":-89.0895004272461,"lo2":-89.04439544677734,"nx":28,"ny":28,"refTime":"2022-09-22T21:00:00:Z","depth":"0","parameterNumber":3,"parameterNumberName":"V-component_of_CURRENTS"},"data":[-0.0036,0.0139,0.0233,0.0482,0.0608,0.0786,0.0884,0.1013,0.1125,0.1312,0.1415,0.1478,0.137,-0.0295,-0.1477,-0.196,-0.2583,-0.2757,-0.3121,-0.2472,-0.2438,-0.2405,-0.2403,-0.2742,-0.2743,-0.3903,-0.3912,-0.3919,-0.0094,0.0041,0.02,0.0398,0.0531,0.0586,0.0751,0.0843,0.0957,0.1051,0.1061,0.095,0.0323,-0.0313,-0.1138,-0.1749,-0.2209,-0.2123,-0.2299,-0.2526,-0.1777,-0.1752,-0.1957,-0.1957,-0.1957,-0.1957,-0.1957,-0.1956,-0.0171,-0.0061,0.0115,0.0266,0.0391,0.0537,0.0635,0.073,0.0822,0.0904,0.0814,0.0797,0.0354,-0.034,-0.0822,-0.1514,-0.1618,-0.1691,-0.1778,-0.192,-0.2176,-0.1337,-0.1525,-0.1525,-0.1525,-0.1525,-0.1525,0,-0.0219,-0.0152,-0.0006,0.0167,0.0276,0.0409,0.052,0.0573,0.0624,0.0652,0.0665,0.0605,0.0196,-0.015,-0.0667,-0.0978,-0.1444,-0.1283,-0.1478,-0.1585,-0.1729,-0.2037,-0.1188,-0.1314,-0.1313,-0.1312,-0.1312,-0.1312,-0.0315,-0.0207,-0.0001,0.0086,0.0172,0.0286,0.0366,0.0414,0.0467,0.0483,0.051,0.0362,0.0278,-0.0185,-0.0586,-0.0988,-0.1233,-0.1244,-0.1272,-0.1429,-0.157,-0.1717,-0.1942,-0.1301,-0.1302,-0.1303,-0.1304,0,-0.0375,-0.025,-0.0072,0.0097,0.0142,0.0222,0.0326,0.038,0.0383,0.0421,0.0416,0.0328,0.0128,-0.0124,-0.0458,-0.0677,-0.1128,-0.1075,-0.0999,-0.1059,-0.1418,-0.1495,-0.1879,-0.2163,-0.1326,-0.1328,-0.133,0,-0.0409,-0.0292,-0.0116,-0.0021,0.0106,0.017,0.0254,0.0279,0.0294,0.0327,0.0239,0.0226,-0.0024,-0.0187,-0.0422,-0.0721,-0.0707,-0.0968,-0.104,-0.1004,-0.1005,-0.1215,-0.1298,-0.0971,-0.097,-0.0969,-0.0968,0,-0.0516,-0.0293,-0.014,-0.0078,0.0081,0.0124,0.0167,0.0179,0.0203,0.0174,0.0171,0.0055,-0.0014,-0.022,-0.0459,-0.0474,-0.0725,-0.0787,-0.0988,-0.0993,-0.1033,-0.1039,-0.126,-0.0966,-0.0965,-0.0965,-0.0964,0,-0.0533,-0.04,-0.0198,-0.0061,-0.002,0.0052,0.0093,0.014,0.0123,0.0092,0.0037,-0.0042,-0.0128,-0.0224,-0.0451,-0.0405,-0.0578,-0.0704,-0.0715,-0.0786,-0.0869,-0.0985,-0.101,-0.1194,-0.0868,-0.0866,-0.0865,0,-0.0682,-0.0446,-0.0381,-0.0215,-0.0106,-0.0109,-0.0053,-0.0037,-0.0065,-0.006,-0.0161,-0.0184,-0.0271,-0.0308,-0.0387,-0.0536,-0.0617,-0.0541,-0.0797,-0.0804,-0.0846,-0.0858,-0.0834,-0.0984,-0.0846,-0.0848,-0.0849,0,-0.08,-0.0573,-0.0554,-0.0478,-0.0379,-0.0317,-0.0257,-0.0213,-0.0197,-0.0216,-0.021,-0.027,-0.034,-0.0365,-0.0443,-0.0511,-0.0593,-0.0593,-0.06,-0.0661,-0.0784,-0.0828,-0.0846,-0.0664,-0.0665,-0.0666,-0.0834,0,-0.084,-0.073,-0.0657,-0.0531,-0.0477,-0.0385,-0.0366,-0.0339,-0.0373,-0.038,-0.0402,-0.0468,-0.05,-0.0523,-0.0568,-0.0593,-0.0638,-0.0685,-0.0717,-0.0693,-0.0771,-0.0782,-0.0671,-0.0673,-0.0674,-0.0675,0,0,-0.1029,-0.0871,-0.0831,-0.0717,-0.0666,-0.0677,-0.058,-0.0558,-0.0521,-0.0528,-0.0575,-0.061,-0.0647,-0.0654,-0.0655,-0.0666,-0.0729,-0.0646,-0.0695,-0.0697,-0.0699,-0.0772,-0.0781,-0.0677,-0.0678,-0.0678,-0.0679,0,-0.1039,-0.0983,-0.0875,-0.0812,-0.0726,-0.0705,-0.0684,-0.0623,-0.0633,-0.059,-0.0671,-0.0705,-0.0685,-0.0725,-0.0743,-0.0686,-0.0755,-0.0692,-0.0617,-0.0704,-0.0704,-0.0704,-0.0775,-0.0783,-0.0682,-0.0682,-0.0681,0,-0.1144,-0.1074,-0.1022,-0.0901,-0.0852,-0.0765,-0.0818,-0.0739,-0.0701,-0.0779,-0.074,-0.0787,-0.0824,-0.0802,-0.0797,-0.081,-0.0789,-0.0761,-0.0756,-0.0731,-0.0823,-0.0822,-0.0821,-0.0834,-0.0835,-0.0835,0,0,-0.1169,-0.1076,-0.1001,-0.0905,-0.0867,-0.0831,-0.079,-0.0791,-0.0776,-0.0778,-0.0794,-0.0822,-0.0839,-0.0839,-0.0843,-0.0792,-0.0846,-0.0777,-0.077,-0.0764,-0.0736,-0.0825,-0.0824,-0.0836,-0.0836,-0.0836,0,0,-0.1192,-0.1087,-0.1089,-0.0968,-0.0909,-0.0845,-0.0791,-0.0804,-0.0798,-0.0823,-0.0867,-0.0875,-0.0868,-0.0875,-0.0884,-0.085,-0.0885,-0.0881,-0.0831,-0.0822,-0.0815,-0.0785,-0.0931,0,0,0,0,0,-0.1184,-0.1091,-0.1093,-0.1067,-0.0934,-0.0833,-0.0817,-0.082,-0.0866,-0.0828,-0.0874,-0.0898,-0.0906,-0.0915,-0.0906,-0.0877,-0.0846,-0.0844,-0.0842,-0.0767,-0.0757,-0.075,0,0,0,0,0,0,-0.1174,-0.1141,-0.1096,-0.1024,-0.0994,-0.0836,-0.0908,-0.0906,-0.0871,-0.0881,-0.0889,-0.0898,-0.0925,-0.0919,-0.0912,-0.0884,-0.0934,-0.0845,-0.0844,-0.0842,-0.0763,-0.0756,-0.0749,0,0,0,0,0,-0.1165,-0.1139,-0.0926,-0.1026,-0.1,-0.0973,-0.0913,-0.0912,-0.0893,-0.0901,-0.0909,-0.0901,-0.0921,-0.092,-0.0915,-0.0887,-0.0939,-0.0936,-0.0844,-0.0843,-0.0842,-0.076,0,0,0,0,0,0,-0.1159,-0.1141,-0.0921,-0.0913,-0.1075,-0.0984,-0.097,-0.0917,-0.0918,-0.0921,-0.0916,-0.0924,-0.0917,-0.0917,-0.0916,-0.0888,-0.0943,-0.094,-0.0938,-0.0843,-0.0842,-0.0841,0,0,0,0,0,0,-0.1154,-0.1134,-0.0917,-0.0979,-0.0978,-0.0993,-0.0981,-0.0936,-0.0921,-0.0935,-0.094,-0.092,-0.095,-0.0914,-0.0914,-0.084,-0.0946,-0.0944,-0.0942,-0.094,-0.0842,-0.0842,0,0,0,0,0,0,-0.1146,-0.1128,-0.0981,-0.098,-0.098,-0.0893,-0.0958,-0.0843,-0.0906,-0.0937,-0.0918,-0.0924,-0.0948,-0.0946,-0.0912,-0.0838,-0.084,-0.0946,-0.0944,-0.0943,-0.0942,0,0,0,0,0,0,0,-0.1139,-0.1258,-0.0966,-0.0982,-0.0982,-0.0839,-0.0837,-0.0835,-0.0907,-0.0912,-0.0917,-0.0922,-0.0962,-0.0959,-0.0956,-0.0836,0,0,-0.0946,-0.0945,0,0,0,0,0,0,0,0,-0.1266,-0.126,-0.0966,-0.0964,-0.0962,-0.0839,-0.0837,-0.0836,-0.0908,-0.0912,-0.0916,-0.092,-0.0961,-0.0958,-0.0956,0,0,0,0,0,0,0,0,0,0,0,0,0,0,0,-0.0965,-0.0964,0,-0.0838,-0.0837,-0.0836,-0.0908,-0.0912,-0.0915,-0.0918,-0.096,-0.0958,-0.0956,0,0,0,0,0,0,0,0,0,0,0,0,0,0,0,0,0,0,0,0,0,0,0,0,0,0,0,0,0,0,0,0,0,0,0,0,0,0,0,0,0,0,0,0,0,0,0,0,0,0,0,0,0,0,0,0,0,0,0,0,0,0,0,0,0,0,0,0,0]}]],[[{"header":{"parameterUnit":"kt","parameterCategory":2,"dx":1,"dy":1,"la1":30.253999710083008,"la2":30.299108505249023,"lo1":-89.0895004272461,"lo2":-89.04439544677734,"nx":28,"ny":28,"refTime":"2022-09-22T21:00:00:Z","depth":"2","parameterNumber":2,"parameterNumberName":"U-component_of_CURRENTS"},"data":[0.1839,0.1822,0.1829,0.1817,0.1874,0.1856,0.1849,0.178,0.175,0.1635,0.1538,0.1538,0.1528,0.1241,0.1229,0.1179,0.1366,0.1113,0.1888,0.1637,0.1688,0.1765,0.1544,0,0,0,0,0,0.1881,0.1895,0.1923,0.1944,0.196,0.2047,0.2057,0.2002,0.2007,0.2056,0.2123,0.1772,0.1676,0.1748,0.1746,0.1845,0.1759,0.1703,0.1459,0.151,0.1557,0.1387,0.1047,0.1047,0.1048,0.1048,0,0,0.1929,0.1939,0.1952,0.2009,0.2064,0.2081,0.2092,0.2148,0.2212,0.2267,0.2393,0.2356,0.231,0.2359,0.24,0.2431,0.2597,0.2302,0.2312,0.2332,0.2206,0.2131,0.2079,0.2085,0.209,0.2094,0.2098,0,0.1935,0.196,0.1978,0.2035,0.2084,0.2144,0.2212,0.2253,0.237,0.2473,0.2561,0.2635,0.284,0.2726,0.2886,0.2822,0.2727,0.2653,0.325,0.2168,0.2084,0.2083,0.2099,0.2047,0.2053,0.2057,0.2061,0.2063,0.192,0.1947,0.2009,0.2035,0.2067,0.2151,0.2202,0.2319,0.2374,0.2559,0.2593,0.2801,0.2859,0.3053,0.3089,0.3173,0.32,0.2778,0.261,0.3075,0.308,0.3064,0.3049,0.2127,0.2119,0.2112,0.2107,0,0.1898,0.1923,0.1975,0.2032,0.2059,0.2114,0.2231,0.2292,0.2419,0.2534,0.2594,0.2738,0.2869,0.2966,0.3078,0.3063,0.3122,0.314,0.2656,0.2618,0.3052,0.3038,0.32,0.3201,0.3202,0.3203,0.3203,0,0.187,0.1912,0.1952,0.1979,0.2043,0.2089,0.2187,0.2247,0.2369,0.245,0.255,0.2629,0.2742,0.2843,0.2858,0.2953,0.2992,0.2942,0.2964,0.2544,0.2508,0.2862,0.2847,0.2975,0.2974,0.2972,0.2971,0,0.1837,0.1895,0.194,0.196,0.2025,0.2068,0.2114,0.221,0.2283,0.241,0.2489,0.2584,0.2684,0.2733,0.2802,0.2763,0.2929,0.2884,0.2915,0.2915,0.2534,0.2497,0.297,0.297,0.2969,0.2969,0.2968,0,0.182,0.1848,0.1907,0.1961,0.1983,0.2026,0.212,0.2174,0.2276,0.233,0.2416,0.2472,0.2569,0.2537,0.2669,0.2628,0.2676,0.2704,0.2711,0.2684,0.2669,0.2373,0.2388,0.2788,0.2786,0.2784,0.2782,0,0.1774,0.183,0.1854,0.1917,0.1953,0.1994,0.2046,0.2109,0.2167,0.2247,0.2299,0.2392,0.2376,0.2441,0.2475,0.2544,0.2597,0.2514,0.2649,0.2653,0.2631,0.2733,0.2268,0.2374,0.2758,0.2761,0.2762,0,0.1744,0.1793,0.1808,0.1835,0.19,0.1935,0.1989,0.2059,0.211,0.2165,0.2243,0.2311,0.2348,0.2378,0.2413,0.2451,0.2556,0.2459,0.2461,0.2521,0.2713,0.2701,0.2716,0.2573,0.2576,0.2578,0.2743,0,0.1723,0.1761,0.1782,0.1838,0.1876,0.1915,0.1963,0.2004,0.2039,0.2079,0.2167,0.2212,0.2286,0.2303,0.2317,0.2403,0.2419,0.2405,0.2378,0.2437,0.2502,0.2517,0.2318,0.2317,0.2316,0.2315,0,0,0.169,0.173,0.176,0.1797,0.1831,0.1868,0.1908,0.1943,0.201,0.2043,0.2046,0.2159,0.2183,0.2266,0.2293,0.2303,0.2347,0.2298,0.2402,0.2412,0.2421,0.2485,0.2501,0.2314,0.2313,0.2313,0.2313,0,0.1683,0.1713,0.1742,0.1777,0.1835,0.1864,0.1878,0.1934,0.1965,0.2022,0.2051,0.2104,0.2163,0.2202,0.2227,0.2288,0.2307,0.2307,0.2333,0.2393,0.2404,0.2413,0.2479,0.2494,0.2311,0.2311,0.2311,0,0.1666,0.1699,0.1715,0.1775,0.1812,0.1851,0.1865,0.1912,0.1947,0.1965,0.2023,0.2059,0.2096,0.2156,0.2181,0.2165,0.2271,0.2223,0.2228,0.2217,0.2277,0.2289,0.23,0.2158,0.2157,0.2157,0,0,0.1665,0.1691,0.1743,0.1778,0.1799,0.1847,0.1875,0.1903,0.1945,0.1967,0.1998,0.2034,0.2079,0.2102,0.2134,0.2178,0.2196,0.2205,0.2212,0.2218,0.2211,0.2272,0.2284,0.2155,0.2155,0.2155,0,0,0.1663,0.1713,0.1731,0.1771,0.1817,0.1867,0.1895,0.1917,0.1963,0.1969,0.1993,0.2003,0.2061,0.2065,0.2042,0.2129,0.2098,0.2103,0.2131,0.214,0.2147,0.2132,0.2033,0,0,0,0,0,0.1681,0.1704,0.1719,0.1732,0.1805,0.1856,0.1867,0.1911,0.1917,0.194,0.1976,0.1972,0.2065,0.2045,0.2051,0.2087,0.2134,0.2138,0.2141,0.2187,0.2197,0.2205,0,0,0,0,0,0,0.1687,0.1701,0.1719,0.1767,0.1785,0.1855,0.1864,0.1876,0.1916,0.1921,0.1966,0.1972,0.1988,0.2042,0.2047,0.2081,0.2031,0.2135,0.2139,0.2142,0.2191,0.2198,0.2205,0,0,0,0,0,0.1691,0.1703,0.1807,0.1768,0.1783,0.1845,0.1864,0.1874,0.1908,0.1942,0.1951,0.1942,0.1987,0.1994,0.2045,0.2079,0.2027,0.2029,0.2137,0.214,0.2142,0.2194,0,0,0,0,0,0,0.1694,0.171,0.1811,0.1818,0.1769,0.1843,0.1855,0.1872,0.1927,0.1937,0.1917,0.192,0.1986,0.1992,0.1997,0.2079,0.2024,0.2026,0.2027,0.2139,0.2141,0.2143,0,0,0,0,0,0,0.1704,0.1715,0.1815,0.1813,0.182,0.1841,0.1851,0.1872,0.1926,0.1898,0.1903,0.1917,0.1973,0.199,0.1995,0.2027,0.2021,0.2023,0.2025,0.2026,0.2141,0.2143,0,0,0,0,0,0,0.171,0.1719,0.1812,0.1817,0.1823,0.1899,0.1859,0.1928,0.1939,0.1894,0.194,0.1941,0.1971,0.1976,0.1993,0.2022,0.2025,0.2021,0.2023,0.2024,0.2025,0,0,0,0,0,0,0,0.1714,0.1641,0.1775,0.182,0.1825,0.188,0.1881,0.1883,0.1939,0.194,0.194,0.1941,0.2009,0.2012,0.2014,0.2019,0,0,0.2021,0.2022,0,0,0,0,0,0,0,0,0.1638,0.164,0.1775,0.1776,0.1778,0.188,0.1881,0.1883,0.1939,0.194,0.194,0.194,0.201,0.2012,0.2014,0,0,0,0,0,0,0,0,0,0,0,0,0,0,0,0.1775,0.1776,0,0.188,0.1881,0.1882,0.1939,0.194,0.194,0.194,0.2011,0.2012,0.2014,0,0,0,0,0,0,0,0,0,0,0,0,0,0,0,0,0,0,0,0,0,0,0,0,0,0,0,0,0,0,0,0,0,0,0,0,0,0,0,0,0,0,0,0,0,0,0,0,0,0,0,0,0,0,0,0,0,0,0,0,0,0,0,0,0,0,0,0,0]}],[{"header":{"parameterUnit":"kt","parameterCategory":2,"dx":1,"dy":1,"la1":30.253999710083008,"la2":30.299108505249023,"lo1":-89.0895004272461,"lo2":-89.04439544677734,"nx":28,"ny":28,"refTime":"2022-09-22T21:00:00:Z","depth":"2","parameterNumber":3,"parameterNumberName":"V-component_of_CURRENTS"},"data":[0.0504,0.0562,0.0588,0.0726,0.0801,0.096,0.1056,0.1214,0.1303,0.1245,0.1088,0.1137,0.0521,0.0135,-0.0186,-0.0498,-0.0584,-0.0533,-0.0461,-0.0478,-0.048,-0.0859,-0.0762,0,0,0,0,0,0.0465,0.0497,0.0554,0.0626,0.0709,0.0729,0.0854,0.0957,0.1105,0.1181,0.1238,0.069,0.0441,0.0014,-0.0433,-0.0632,-0.0671,-0.0803,-0.0861,-0.0867,-0.0873,-0.081,-0.081,-0.0811,-0.0811,-0.0812,0,0,0.0395,0.0431,0.0459,0.0515,0.0573,0.066,0.0742,0.0817,0.0902,0.1005,0.0916,0.0806,0.0507,0.003,-0.0258,-0.0613,-0.0595,-0.0826,-0.0832,-0.0838,-0.077,-0.0706,-0.076,-0.076,-0.076,-0.076,-0.076,0,0.0341,0.0342,0.0368,0.0422,0.0463,0.0522,0.0571,0.0628,0.0626,0.0655,0.069,0.0657,0.0399,0.0112,-0.027,-0.047,-0.0806,-0.0839,-0.0881,-0.0877,-0.0817,-0.0837,-0.0831,-0.0903,-0.0904,-0.0905,-0.0905,-0.0906,0.0272,0.029,0.0311,0.0339,0.034,0.0376,0.0408,0.0395,0.0434,0.0424,0.0455,0.0321,0.0266,-0.0084,-0.0348,-0.0646,-0.078,-0.0859,-0.0866,-0.0847,-0.0868,-0.086,-0.0851,-0.0916,-0.0914,-0.0913,-0.0913,0,0.0239,0.0221,0.0256,0.0254,0.0259,0.0285,0.0308,0.0336,0.0295,0.0321,0.0305,0.0188,0.0021,-0.0228,-0.0504,-0.0639,-0.0835,-0.089,-0.0836,-0.0854,-0.0867,-0.0856,-0.0946,-0.0944,-0.0942,-0.0941,-0.0939,0,0.0177,0.0198,0.0181,0.0192,0.0231,0.0191,0.0222,0.0188,0.0165,0.0187,0.0051,0.0051,-0.0207,-0.0343,-0.0534,-0.0705,-0.076,-0.0832,-0.0861,-0.0849,-0.084,-0.0905,-0.0898,-0.0957,-0.0956,-0.0955,-0.0954,0,0.0133,0.0127,0.0146,0.014,0.0121,0.0125,0.0113,0.0066,0.0074,-0.0003,0.0,-0.0147,-0.0196,-0.0378,-0.0555,-0.0565,-0.0764,-0.0802,-0.0839,-0.0834,-0.087,-0.0863,-0.0953,-0.0953,-0.0953,-0.0952,-0.0952,0,0.007,0.0071,0.0082,0.0084,0.0082,0.0073,0.0058,0.0037,-0.0027,-0.0055,-0.0127,-0.0192,-0.0296,-0.0348,-0.055,-0.0507,-0.0625,-0.0711,-0.0718,-0.066,-0.0679,-0.0754,-0.0789,-0.0802,-0.08,-0.0798,-0.0797,0,0.0045,0.0045,0.0014,0.0019,0.0023,-0.0025,-0.004,-0.0077,-0.0114,-0.0141,-0.0229,-0.0271,-0.0342,-0.0366,-0.0447,-0.0552,-0.0625,-0.0557,-0.0739,-0.0743,-0.0651,-0.0676,-0.0666,-0.0767,-0.0778,-0.078,-0.0781,0,0.0021,-0.0015,-0.0017,-0.001,-0.0061,-0.0071,-0.0102,-0.0131,-0.0135,-0.0202,-0.0216,-0.0318,-0.0354,-0.0396,-0.0454,-0.0518,-0.0594,-0.0563,-0.0568,-0.0596,-0.0747,-0.0661,-0.0666,-0.0638,-0.064,-0.0642,-0.0766,0,-0.0004,-0.0019,-0.0029,-0.0055,-0.0078,-0.0093,-0.0136,-0.0157,-0.0185,-0.0216,-0.0273,-0.0347,-0.0408,-0.0436,-0.0476,-0.0537,-0.0558,-0.0582,-0.0587,-0.0607,-0.0659,-0.0671,-0.0542,-0.0542,-0.0543,-0.0544,0,0,-0.0006,-0.0023,-0.0065,-0.0077,-0.0091,-0.0141,-0.0144,-0.0179,-0.0235,-0.0248,-0.0266,-0.0375,-0.0424,-0.0484,-0.0495,-0.0526,-0.0571,-0.0516,-0.0595,-0.06,-0.0605,-0.0655,-0.0666,-0.0545,-0.0545,-0.0545,-0.0545,0,-0.0012,-0.0047,-0.0055,-0.008,-0.012,-0.0147,-0.0153,-0.02,-0.022,-0.0262,-0.0307,-0.0356,-0.0428,-0.047,-0.0503,-0.0531,-0.0571,-0.0548,-0.0525,-0.0598,-0.0602,-0.0606,-0.0656,-0.0665,-0.0547,-0.0547,-0.0547,0,-0.0012,-0.0041,-0.0054,-0.01,-0.0132,-0.0151,-0.0179,-0.0211,-0.0226,-0.0281,-0.0317,-0.0365,-0.0428,-0.0473,-0.0497,-0.05,-0.0577,-0.0544,-0.0543,-0.0536,-0.0611,-0.0616,-0.0621,-0.0563,-0.0563,-0.0563,0,0,-0.0012,-0.0033,-0.0077,-0.0104,-0.012,-0.0165,-0.0188,-0.0209,-0.0256,-0.0276,-0.0315,-0.0366,-0.0416,-0.0442,-0.0487,-0.053,-0.0568,-0.0543,-0.0542,-0.0541,-0.0534,-0.0608,-0.0613,-0.0562,-0.0562,-0.0561,0,0,-0.0015,-0.0061,-0.0075,-0.0107,-0.014,-0.0194,-0.0214,-0.0234,-0.0281,-0.0286,-0.0334,-0.0347,-0.0395,-0.0428,-0.0408,-0.0481,-0.0489,-0.0494,-0.0446,-0.0446,-0.0446,-0.0422,-0.0422,0,0,0,0,0,-0.0037,-0.0054,-0.0065,-0.0076,-0.0146,-0.0187,-0.0197,-0.0233,-0.0245,-0.0255,-0.0303,-0.0315,-0.0429,-0.0412,-0.0426,-0.043,-0.0547,-0.055,-0.0552,-0.0502,-0.0502,-0.0501,0,0,0,0,0,0,-0.0042,-0.0055,-0.0065,-0.0117,-0.0134,-0.0186,-0.0204,-0.0215,-0.0244,-0.0247,-0.0307,-0.0317,-0.0347,-0.0408,-0.0419,-0.0422,-0.0418,-0.0548,-0.055,-0.0552,-0.0502,-0.0502,-0.0501,0,0,0,0,0,-0.0046,-0.0056,-0.0155,-0.0118,-0.0132,-0.0185,-0.0204,-0.0213,-0.0237,-0.0291,-0.0301,-0.0263,-0.0346,-0.0359,-0.0415,-0.0416,-0.041,-0.0414,-0.055,-0.0551,-0.0553,-0.0502,0,0,0,0,0,0,-0.0049,-0.0067,-0.0159,-0.0166,-0.0113,-0.0183,-0.0194,-0.0211,-0.0279,-0.029,-0.0247,-0.0249,-0.0346,-0.0356,-0.0365,-0.0412,-0.0404,-0.0408,-0.0411,-0.0551,-0.0552,-0.0553,0,0,0,0,0,0,-0.0062,-0.0072,-0.0163,-0.0154,-0.016,-0.018,-0.019,-0.0234,-0.028,-0.0233,-0.0236,-0.0247,-0.0333,-0.0354,-0.0361,-0.0428,-0.0399,-0.0403,-0.0406,-0.0408,-0.0552,-0.0553,0,0,0,0,0,0,-0.0067,-0.0075,-0.0153,-0.0157,-0.0162,-0.0234,-0.022,-0.029,-0.0269,-0.0229,-0.0269,-0.0269,-0.0331,-0.0339,-0.0358,-0.0422,-0.0427,-0.0399,-0.0402,-0.0404,-0.0405,0,0,0,0,0,0,0,-0.0071,-0.0001,-0.0123,-0.0159,-0.0164,-0.0222,-0.0224,-0.0226,-0.0269,-0.0269,-0.0269,-0.0269,-0.0376,-0.038,-0.0385,-0.0417,0,0,-0.0399,-0.0401,0,0,0,0,0,0,0,0,0.0001,-0.0001,-0.0123,-0.0124,-0.0126,-0.0223,-0.0224,-0.0225,-0.0269,-0.0269,-0.0269,-0.0269,-0.0377,-0.0381,-0.0384,0,0,0,0,0,0,0,0,0,0,0,0,0,0,0,-0.0123,-0.0124,0,-0.0223,-0.0224,-0.0225,-0.0269,-0.0269,-0.0269,-0.0269,-0.0378,-0.0381,-0.0384,0,0,0,0,0,0,0,0,0,0,0,0,0,0,0,0,0,0,0,0,0,0,0,0,0,0,0,0,0,0,0,0,0,0,0,0,0,0,0,0,0,0,0,0,0,0,0,0,0,0,0,0,0,0,0,0,0,0,0,0,0,0,0,0,0,0,0,0,0]}]],[[{"header":{"parameterUnit":"kt","parameterCategory":2,"dx":1,"dy":1,"la1":30.253999710083008,"la2":30.299108505249023,"lo1":-89.0895004272461,"lo2":-89.04439544677734,"nx":28,"ny":28,"refTime":"2022-09-22T21:00:00:Z","depth":"4","parameterNumber":2,"parameterNumberName":"U-component_of_CURRENTS"},"data":[0.0108,0.0131,0.0161,0.0217,0.0257,0.0301,0.0332,0.0361,0.0392,0.0439,0.0484,0.0532,0.0617,0.0592,0.0715,0.0734,0.0621,0.086,0.0861,0.0646,0.0632,0.0619,0.0582,0,0,0,0,0,0.0129,0.0146,0.0176,0.0227,0.0268,0.0296,0.0336,0.0352,0.0397,0.0438,0.0463,0.0533,0.0632,0.0667,0.0723,0.0745,0.0694,0.0812,0.0626,0.0637,0.0621,0.0591,0,0,0,0,0,0,0.0165,0.0172,0.0206,0.024,0.0276,0.0315,0.0329,0.0371,0.0391,0.0453,0.0479,0.055,0.0582,0.066,0.0722,0.0772,0.0689,0.0638,0.0623,0.0608,0.0588,0.0669,0.0798,0,0,0,0,0,0.0201,0.0214,0.0234,0.0277,0.0298,0.0324,0.035,0.0365,0.0395,0.0407,0.0468,0.0515,0.0592,0.0605,0.0704,0.0685,0.0586,0.0648,0.0635,0.0452,0.0508,0.0505,0.0494,0.056,0.0558,0.0557,0.0556,0,0.0236,0.0243,0.0291,0.0309,0.0329,0.0347,0.0358,0.0375,0.0384,0.0431,0.0438,0.0485,0.0494,0.0583,0.0563,0.0595,0.0566,0.0609,0.0415,0.0482,0.0484,0.0476,0.047,0.0543,0.0544,0.0545,0.0546,0,0.0249,0.0285,0.0307,0.0349,0.0364,0.0367,0.0395,0.0396,0.0402,0.0413,0.0402,0.0408,0.0428,0.0447,0.0404,0.0404,0.041,0.0443,0.0382,0.0383,0.0447,0.0446,0.0522,0.0526,0.053,0.0534,0.0536,0,0.0288,0.0301,0.0352,0.036,0.0377,0.0397,0.0401,0.0404,0.0408,0.0417,0.0388,0.0387,0.031,0.0336,0.0288,0.0326,0.0271,0.0273,0.0284,0.0127,0.0127,0.0132,0.0132,0.0115,0.0114,0.0113,0.0112,0,0.0302,0.0342,0.036,0.0371,0.0406,0.041,0.0418,0.0423,0.0423,0.0405,0.0403,0.0354,0.0324,0.0265,0.0248,0.0187,0.023,0.014,0.0247,0.0258,0.0127,0.0129,0.0111,0.0111,0.0111,0.0111,0.011,0,0.0329,0.0354,0.0375,0.0407,0.0413,0.0419,0.0427,0.0427,0.0426,0.0415,0.0383,0.0355,0.0299,0.0252,0.0194,0.0178,0.0151,0.0128,0.013,0.0241,0.025,0.0214,0.0194,0.0194,0.0194,0.0194,0.0194,0,0.0338,0.0367,0.0384,0.04,0.0415,0.0427,0.0427,0.0431,0.0425,0.0419,0.0377,0.0338,0.0292,0.0248,0.0203,0.0152,0.0141,0.0125,0.0133,0.0135,0.0248,0.0252,0.0077,0.0191,0.0192,0.0192,0.0192,0,0.034,0.0383,0.0383,0.0399,0.0419,0.0425,0.0426,0.0432,0.0434,0.0408,0.04,0.0316,0.0291,0.0261,0.0212,0.0172,0.0147,0.0139,0.0137,0.0202,0.0123,0.0238,0.0251,0.0082,0.0081,0.008,0.0191,0,0.0368,0.0382,0.0387,0.0409,0.0416,0.0424,0.0432,0.0431,0.0426,0.0423,0.0383,0.0334,0.0289,0.0256,0.0225,0.0167,0.019,0.0153,0.0165,0.0135,0.0192,0.0193,0.0185,0.0185,0.0186,0.0186,0,0,0.0365,0.038,0.0394,0.0407,0.0415,0.0427,0.0435,0.0435,0.0431,0.0427,0.0418,0.0344,0.0309,0.0258,0.0232,0.0215,0.0217,0.0208,0.0149,0.0145,0.0141,0.0193,0.0194,0.0186,0.0186,0.0186,0.0187,0,0.0372,0.0384,0.0392,0.0403,0.0421,0.0426,0.0431,0.0438,0.0438,0.0421,0.0401,0.0365,0.0315,0.0284,0.026,0.0222,0.022,0.0193,0.0187,0.0152,0.0148,0.0144,0.0194,0.0195,0.0187,0.0187,0.0187,0,0.0377,0.0391,0.0393,0.0411,0.0418,0.0426,0.0433,0.0442,0.0443,0.0427,0.0415,0.0383,0.0346,0.0303,0.0284,0.0289,0.0235,0.0233,0.0231,0.0244,0.0209,0.0204,0.0199,0.0261,0.0261,0.0262,0,0,0.0384,0.0392,0.0407,0.0413,0.042,0.0429,0.0433,0.0441,0.0437,0.0436,0.0419,0.0392,0.0357,0.034,0.0312,0.0274,0.0285,0.0243,0.024,0.0237,0.0247,0.0212,0.0207,0.0263,0.0263,0.0263,0,0,0.0384,0.0402,0.0409,0.0417,0.0426,0.0432,0.0437,0.0443,0.0436,0.0436,0.0418,0.0412,0.0378,0.0363,0.0382,0.0303,0.0316,0.0312,0.0312,0.0308,0.0304,0.0325,0.0371,0,0,0,0,0,0.0396,0.0399,0.0405,0.0409,0.0421,0.0429,0.043,0.044,0.0445,0.0449,0.0435,0.0425,0.0366,0.0383,0.0375,0.0341,0.0278,0.0276,0.0273,0.0265,0.026,0.0256,0,0,0,0,0,0,0.0397,0.0401,0.0405,0.0412,0.0415,0.0428,0.0433,0.0435,0.0445,0.0447,0.0428,0.0424,0.0409,0.0385,0.0379,0.0346,0.0374,0.0277,0.0275,0.0273,0.0263,0.0259,0.0256,0,0,0,0,0,0.0398,0.0401,0.0421,0.0412,0.0414,0.0428,0.0433,0.0435,0.0443,0.0424,0.0421,0.0453,0.0409,0.0403,0.0381,0.035,0.0378,0.0376,0.0276,0.0274,0.0272,0.0261,0,0,0,0,0,0,0.0399,0.0397,0.0421,0.0422,0.0418,0.0428,0.0431,0.0435,0.0418,0.0417,0.0446,0.0448,0.0409,0.0404,0.0399,0.0351,0.0382,0.0379,0.0378,0.0274,0.0273,0.0272,0,0,0,0,0,0,0.0396,0.0398,0.0422,0.0429,0.0431,0.0428,0.043,0.0402,0.0416,0.044,0.0442,0.0447,0.0407,0.0405,0.0401,0.0357,0.0385,0.0382,0.0381,0.038,0.0273,0.0272,0,0,0,0,0,0,0.0396,0.0398,0.0429,0.043,0.0432,0.0441,0.0401,0.0406,0.0448,0.0439,0.0449,0.045,0.0407,0.0404,0.0402,0.036,0.0358,0.0385,0.0383,0.0382,0.0381,0,0,0,0,0,0,0,0.0397,0.0386,0.0419,0.0431,0.0432,0.0432,0.0432,0.0432,0.0448,0.0448,0.0449,0.045,0.0399,0.0396,0.0393,0.0362,0,0,0.0385,0.0384,0,0,0,0,0,0,0,0,0.0385,0.0386,0.0419,0.0419,0.042,0.0432,0.0432,0.0432,0.0448,0.0448,0.0449,0.045,0.0398,0.0396,0.0394,0,0,0,0,0,0,0,0,0,0,0,0,0,0,0,0.0419,0.0419,0,0.0432,0.0432,0.0432,0.0448,0.0448,0.0449,0.0449,0.0397,0.0396,0.0394,0,0,0,0,0,0,0,0,0,0,0,0,0,0,0,0,0,0,0,0,0,0,0,0,0,0,0,0,0,0,0,0,0,0,0,0,0,0,0,0,0,0,0,0,0,0,0,0,0,0,0,0,0,0,0,0,0,0,0,0,0,0,0,0,0,0,0,0,0]}],[{"header":{"parameterUnit":"kt","parameterCategory":2,"dx":1,"dy":1,"la1":30.253999710083008,"la2":30.299108505249023,"lo1":-89.0895004272461,"lo2":-89.04439544677734,"nx":28,"ny":28,"refTime":"2022-09-22T21:00:00:Z","depth":"4","parameterNumber":3,"parameterNumberName":"V-component_of_CURRENTS"},"data":[-0.0404,-0.0405,-0.0394,-0.0393,-0.0405,-0.0422,-0.0433,-0.0436,-0.039,-0.0392,-0.039,-0.0424,-0.0451,-0.0424,-0.05,-0.052,-0.0644,-0.0651,-0.0652,-0.0868,-0.0878,-0.0886,-0.0876,0,0,0,0,0,-0.0412,-0.0404,-0.041,-0.0428,-0.0445,-0.0471,-0.0479,-0.0491,-0.0496,-0.042,-0.045,-0.0417,-0.0462,-0.0479,-0.0508,-0.0582,-0.0723,-0.0624,-0.0807,-0.0874,-0.0885,-0.0871,0,0,0,0,0,0,-0.0416,-0.0417,-0.0434,-0.0462,-0.0489,-0.0495,-0.0523,-0.05,-0.0508,-0.0519,-0.0465,-0.0495,-0.0519,-0.0569,-0.059,-0.0639,-0.0684,-0.0744,-0.0761,-0.0773,-0.074,-0.0689,-0.0559,0,0,0,0,0,-0.0419,-0.0443,-0.0455,-0.0485,-0.0525,-0.0548,-0.0591,-0.0584,-0.0622,-0.0663,-0.0593,-0.0623,-0.0601,-0.0655,-0.069,-0.0735,-0.0929,-0.0892,-0.09,-0.0974,-0.0953,-0.0946,-0.0952,-0.0925,-0.0926,-0.0927,-0.0928,0,-0.0428,-0.0442,-0.0487,-0.0504,-0.0545,-0.0609,-0.064,-0.0712,-0.0713,-0.0739,-0.0719,-0.074,-0.0767,-0.074,-0.0829,-0.0885,-0.0894,-0.0918,-0.0997,-0.0971,-0.096,-0.0963,-0.0966,-0.0936,-0.0936,-0.0935,-0.0934,0,-0.0432,-0.0454,-0.0477,-0.0534,-0.0564,-0.0608,-0.0683,-0.071,-0.0787,-0.0807,-0.0836,-0.0889,-0.0887,-0.0952,-0.0988,-0.1019,-0.1024,-0.1001,-0.1064,-0.1054,-0.0982,-0.0981,-0.095,-0.0947,-0.0945,-0.0942,-0.0941,0,-0.0436,-0.046,-0.0503,-0.0519,-0.0565,-0.0615,-0.0681,-0.0738,-0.0809,-0.0825,-0.0933,-0.0938,-0.1049,-0.1055,-0.1092,-0.107,-0.1109,-0.108,-0.1066,-0.1158,-0.1156,-0.1149,-0.1147,-0.1174,-0.1174,-0.1175,-0.1175,0,-0.0437,-0.0472,-0.0497,-0.0512,-0.0562,-0.0609,-0.0655,-0.0737,-0.0769,-0.0877,-0.091,-0.1007,-0.1047,-0.109,-0.1108,-0.1134,-0.1123,-0.1155,-0.1083,-0.1076,-0.115,-0.1147,-0.1175,-0.1175,-0.1175,-0.1175,-0.1175,0,-0.045,-0.0461,-0.049,-0.0532,-0.0548,-0.0588,-0.0666,-0.0706,-0.0796,-0.0851,-0.0942,-0.1,-0.1067,-0.1088,-0.1136,-0.1137,-0.1146,-0.1152,-0.1151,-0.1067,-0.1043,-0.1076,-0.1121,-0.1121,-0.1121,-0.1121,-0.1121,0,-0.0442,-0.0462,-0.0485,-0.0525,-0.0542,-0.0594,-0.0632,-0.0693,-0.0759,-0.083,-0.0908,-0.0987,-0.1026,-0.1078,-0.1104,-0.1128,-0.1138,-0.1137,-0.1125,-0.1124,-0.1029,-0.1051,-0.1146,-0.1119,-0.1119,-0.1119,-0.1119,0,-0.0434,-0.0468,-0.048,-0.05,-0.0554,-0.0571,-0.0624,-0.0676,-0.0724,-0.0813,-0.0877,-0.0971,-0.1025,-0.1055,-0.1095,-0.111,-0.1131,-0.1114,-0.1114,-0.1082,-0.1142,-0.1058,-0.1051,-0.1142,-0.1143,-0.1144,-0.1118,0,-0.0428,-0.0459,-0.0471,-0.051,-0.0535,-0.0564,-0.0603,-0.0656,-0.0723,-0.0762,-0.0864,-0.0925,-0.1001,-0.1028,-0.1046,-0.1097,-0.1086,-0.1087,-0.1055,-0.1095,-0.1078,-0.108,-0.1057,-0.1057,-0.1056,-0.1056,0,0,-0.0422,-0.0443,-0.0471,-0.0488,-0.051,-0.0559,-0.0581,-0.0615,-0.0691,-0.0729,-0.0763,-0.0894,-0.0933,-0.0993,-0.1022,-0.1039,-0.1037,-0.1034,-0.1083,-0.1086,-0.1089,-0.1075,-0.1077,-0.1055,-0.1055,-0.1055,-0.1055,0,-0.0408,-0.0446,-0.0464,-0.0482,-0.0525,-0.0541,-0.0564,-0.0612,-0.0656,-0.0725,-0.0771,-0.0843,-0.0915,-0.0945,-0.0967,-0.1029,-0.1017,-0.1055,-0.1069,-0.108,-0.1083,-0.1086,-0.1073,-0.1075,-0.1054,-0.1054,-0.1054,0,-0.0401,-0.042,-0.0436,-0.0466,-0.0493,-0.0511,-0.0538,-0.0582,-0.0612,-0.0655,-0.074,-0.079,-0.0831,-0.089,-0.0927,-0.0912,-0.0984,-0.0978,-0.0981,-0.0977,-0.0986,-0.0991,-0.0996,-0.0934,-0.0933,-0.0933,0,0,-0.0394,-0.0418,-0.0438,-0.0463,-0.0477,-0.0515,-0.0538,-0.0571,-0.0618,-0.0653,-0.0705,-0.0765,-0.081,-0.0845,-0.0885,-0.0931,-0.0922,-0.0962,-0.0968,-0.0972,-0.0971,-0.0981,-0.0987,-0.0931,-0.0931,-0.0931,0,0,-0.0387,-0.0413,-0.0437,-0.0462,-0.0485,-0.0503,-0.0532,-0.0566,-0.0632,-0.0666,-0.0701,-0.0717,-0.0797,-0.0811,-0.0781,-0.0879,-0.0858,-0.0864,-0.0863,-0.087,-0.0876,-0.0863,-0.0775,0,0,0,0,0,-0.0388,-0.0402,-0.0423,-0.043,-0.0472,-0.0485,-0.0493,-0.0542,-0.0585,-0.0608,-0.0674,-0.068,-0.0806,-0.078,-0.0789,-0.0822,-0.0905,-0.0909,-0.0914,-0.0925,-0.0932,-0.0939,0,0,0,0,0,0,-0.039,-0.0398,-0.0422,-0.0437,-0.0447,-0.0485,-0.0514,-0.0527,-0.0584,-0.0595,-0.0667,-0.0679,-0.0693,-0.0776,-0.0784,-0.0815,-0.0773,-0.0907,-0.0911,-0.0914,-0.0927,-0.0933,-0.0939,0,0,0,0,0,-0.0393,-0.0398,-0.0458,-0.0437,-0.0446,-0.0504,-0.0516,-0.0528,-0.0589,-0.0615,-0.0632,-0.0632,-0.069,-0.0703,-0.0781,-0.0811,-0.0767,-0.077,-0.0909,-0.0912,-0.0915,-0.093,0,0,0,0,0,0,-0.0394,-0.0409,-0.0461,-0.0465,-0.0456,-0.0505,-0.0516,-0.0528,-0.0609,-0.0623,-0.0577,-0.0583,-0.0688,-0.0698,-0.0707,-0.081,-0.0763,-0.0766,-0.0768,-0.0912,-0.0914,-0.0916,0,0,0,0,0,0,-0.0406,-0.0412,-0.0463,-0.0485,-0.0492,-0.0506,-0.0515,-0.0538,-0.061,-0.0567,-0.0574,-0.0579,-0.0687,-0.0695,-0.0702,-0.0734,-0.076,-0.0762,-0.0764,-0.0766,-0.0913,-0.0915,0,0,0,0,0,0,-0.0409,-0.0414,-0.0484,-0.049,-0.0496,-0.0545,-0.0529,-0.0579,-0.0601,-0.0564,-0.0607,-0.061,-0.0682,-0.0691,-0.0698,-0.0726,-0.0732,-0.076,-0.0762,-0.0763,-0.0764,0,0,0,0,0,0,0,-0.0411,-0.0367,-0.0436,-0.0493,-0.0499,-0.0502,-0.0503,-0.0504,-0.0601,-0.0604,-0.0606,-0.0609,-0.0743,-0.0746,-0.075,-0.072,0,0,-0.0759,-0.0761,0,0,0,0,0,0,0,0,-0.0366,-0.0367,-0.0436,-0.0437,-0.0437,-0.0502,-0.0503,-0.0504,-0.0602,-0.0604,-0.0606,-0.0608,-0.0744,-0.0747,-0.0749,0,0,0,0,0,0,0,0,0,0,0,0,0,0,0,-0.0436,-0.0437,0,-0.0502,-0.0503,-0.0504,-0.0602,-0.0604,-0.0605,-0.0607,-0.0745,-0.0747,-0.0749,0,0,0,0,0,0,0,0,0,0,0,0,0,0,0,0,0,0,0,0,0,0,0,0,0,0,0,0,0,0,0,0,0,0,0,0,0,0,0,0,0,0,0,0,0,0,0,0,0,0,0,0,0,0,0,0,0,0,0,0,0,0,0,0,0,0,0,0,0]}]]]